TimeCDT,TemperatureF,Dew PointF,Humidity,Sea Level PressureIn,VisibilityMPH,Wind Direction,Wind SpeedMPH,Gust SpeedMPH,PrecipitationIn,Events,Conditions,WindDirDegrees,DateUTC
12:53 AM,44.1,28.9,55,30.06,10.0,WSW,8.1,-,N/A,,Scattered Clouds,250,2012-10-11 05:53:00
1:53 AM,43.0,28.0,56,30.04,10.0,SSW,8.1,-,N/A,,Mostly Cloudy,200,2012-10-11 06:53:00
2:53 AM,41.0,28.0,60,30.03,10.0,Variable,3.5,-,N/A,,Clear,0,2012-10-11 07:53:00
3:53 AM,43.0,28.0,56,30.00,10.0,Variable,3.5,-,N/A,,Clear,0,2012-10-11 08:53:00
4:53 AM,43.0,28.9,58,30.00,10.0,SSW,5.8,-,N/A,,Clear,210,2012-10-11 09:53:00
5:53 AM,48.0,30.9,52,29.99,10.0,SSW,12.7,21.9,N/A,,Clear,210,2012-10-11 10:53:00
6:53 AM,48.9,32.0,52,30.00,10.0,SSW,13.8,-,N/A,,Unknown,210,2012-10-11 11:53:00
7:53 AM,50.0,33.1,52,30.01,10.0,SW,11.5,-,N/A,,Mostly Cloudy,230,2012-10-11 12:53:00
8:53 AM,53.1,35.1,50,30.03,10.0,SW,12.7,19.6,N/A,,Mostly Cloudy,230,2012-10-11 13:53:00
9:53 AM,55.0,34.0,45,30.04,10.0,WSW,13.8,20.7,N/A,,Scattered Clouds,240,2012-10-11 14:53:00
10:53 AM,57.0,34.0,42,30.06,10.0,WSW,10.4,20.7,N/A,,Mostly Cloudy,250,2012-10-11 15:53:00
11:53 AM,57.9,35.1,42,30.07,10.0,WNW,9.2,19.6,N/A,,Mostly Cloudy,290,2012-10-11 16:53:00
12:53 PM,57.0,36.0,45,30.08,10.0,NW,10.4,-,0.00,,Overcast,310,2012-10-11 17:53:00
1:53 PM,57.0,35.1,44,30.08,10.0,NW,11.5,-,N/A,,Scattered Clouds,320,2012-10-11 18:53:00
2:53 PM,55.0,35.1,47,30.12,10.0,NNW,10.4,-,0.00,Rain,Light Rain,330,2012-10-11 19:53:00
3:53 PM,52.0,37.9,59,30.14,10.0,NW,6.9,-,0.00,Rain,Light Rain,320,2012-10-11 20:53:00
6:53 PM,48.0,30.9,52,30.22,10.0,Calm,Calm,-,N/A,,Overcast,0,2012-10-11 23:53:00
7:53 PM,46.9,30.9,54,30.23,10.0,NW,3.5,-,N/A,,Overcast,320,2012-10-12 00:53:00
8:53 PM,46.9,30.0,52,30.26,10.0,North,3.5,-,N/A,,Overcast,350,2012-10-12 01:53:00
9:53 PM,46.9,24.1,41,30.30,10.0,North,9.2,-,N/A,,Clear,350,2012-10-12 02:53:00
11:53 PM,43.0,19.9,40,30.36,10.0,North,6.9,-,N/A,,Clear,10,2012-10-12 04:53:00